Darstellungsparameter: Aktuell verwendete Einstellungen:
Skalierung der Graphiken ... ?
xyx+y,   Skalierungsfaktor:      Skalierung: Modus: x, Faktor: 1
Darstellungszeitraum ... ?
Vom - - bis: - -   Zeitraum: 18.04.2021 - 19.04.2021
Min/Max/Avg-Anzeige ... ?
Zeige MMA aktuell
Zeige MMA Monat
Zeige MMA alles
Zeige --A aktuell
Zeige --A Monat
Zeige --A alles
Keine MMA-Anzeige
MMA:
Keine MMA-Graphiken
MMA-Basis: 18.04.2021 - 19.04.2021
Quicknavigation für Darstellung... ?
Tage:      1T, 2T, 3T, 5T -1T -2T -3T -5T +1T +2T +3T +5T
Wochen: 1W, 2W, 3W -1W -2W -3W +1W +2W +3W
Monate: 1M, 3M, 6M -1M -3M -6M +1M +3M +6M
Jahre:    1J, 3J, 5J, 10J -1J -3J -5J -10J +1J +3J +5J +10J
Nutze für die Darstellung ... ?
Originaldaten oder Mittelwerte auf ...
Stundenbasis Tagesbasis Wochenbasis
Monatsbasis Jahresbasis      Datenbasis: Original-Daten
Darstellen als:
Statistik (Auto) Statistik J:M      Darstellung:

Der gewünschte Datumsbereich war nicht gültig/verfügbar und wurde korrigiert....
Das angegebene Enddatum (28.02.2026 23:59:59) liegt in der Zukunft.
Das angegebene Startdatum (28.02.2026 00:00:00) liegt in der Zukunft.


Zur Graphik,    zurück zur Übersicht aller Sensoren.
 
Tabellarische Datenbersicht: ?
 
Sensor: Nr:Datum:Temp:Feuchte:Taupunkt:
Aussen-T/F 1 18-04-2021 02:00:00 7.1 C 79 % 3.71 C
2 18-04-2021 02:05:00 7 C 78 % 3.43 C
3 18-04-2021 02:10:00 7 C 78 % 3.43 C
4 18-04-2021 02:15:00 7 C 79 % 3.61 C
5 18-04-2021 02:20:00 7 C 79 % 3.61 C
6 18-04-2021 02:25:00 6.9 C 79 % 3.52 C
7 18-04-2021 02:30:00 6.8 C 78 % 3.24 C
8 18-04-2021 02:35:00 6.7 C 77 % 2.96 C
9 18-04-2021 02:40:00 6.6 C 78 % 3.05 C
10 18-04-2021 02:45:00 6.4 C 78 % 2.85 C
11 18-04-2021 02:50:00 6.4 C 79 % 3.03 C
12 18-04-2021 02:55:00 6.3 C 79 % 2.93 C
13 18-04-2021 03:00:00 6.3 C 80 % 3.11 C
14 18-04-2021 03:05:00 6.3 C 80 % 3.11 C
15 18-04-2021 03:10:00 6.2 C 80 % 3.01 C
16 18-04-2021 03:15:00 6.2 C 79 % 2.84 C
17 18-04-2021 03:20:00 6.1 C 79 % 2.74 C
18 18-04-2021 03:25:00 6 C 80 % 2.82 C
19 18-04-2021 03:30:00 6 C 81 % 2.99 C
20 18-04-2021 03:35:00 6.1 C 81 % 3.09 C
21 18-04-2021 03:40:00 6.1 C 82 % 3.26 C
22 18-04-2021 03:45:00 6.1 C 82 % 3.26 C
23 18-04-2021 03:50:00 6.2 C 82 % 3.36 C
24 18-04-2021 03:55:00 6.2 C 81 % 3.19 C
25 18-04-2021 04:00:00 6.2 C 81 % 3.19 C
Sensor: Nr:Datum:Temp:Feuchte:Taupunkt:
Aussen-T/F 26 18-04-2021 04:05:00 6.2 C 81 % 3.19 C
27 18-04-2021 04:10:00 6.2 C 81 % 3.19 C
28 18-04-2021 04:15:00 6.3 C 82 % 3.46 C
29 18-04-2021 04:20:00 6.3 C 81 % 3.29 C
30 18-04-2021 04:25:00 6.3 C 81 % 3.29 C
31 18-04-2021 04:30:00 6.3 C 81 % 3.29 C
32 18-04-2021 04:35:00 6.3 C 81 % 3.29 C
33 18-04-2021 04:40:00 6.3 C 80 % 3.11 C
34 18-04-2021 04:45:00 6.4 C 80 % 3.21 C
35 18-04-2021 04:50:00 6.4 C 81 % 3.38 C
36 18-04-2021 04:55:00 6.4 C 80 % 3.21 C
37 18-04-2021 05:00:00 6.5 C 79 % 3.13 C
38 18-04-2021 05:05:00 6.5 C 78 % 2.95 C
39 18-04-2021 05:10:00 6.6 C 78 % 3.05 C
40 18-04-2021 05:15:00 6.6 C 79 % 3.23 C
41 18-04-2021 05:20:00 6.6 C 79 % 3.23 C
42 18-04-2021 05:25:00 6.7 C 80 % 3.5 C
43 18-04-2021 05:30:00 6.7 C 80 % 3.5 C
44 18-04-2021 05:35:00 6.7 C 80 % 3.5 C
45 18-04-2021 05:40:00 6.7 C 79 % 3.32 C
46 18-04-2021 05:45:00 6.7 C 79 % 3.32 C
47 18-04-2021 05:50:00 6.7 C 79 % 3.32 C
48 18-04-2021 05:55:00 6.7 C 77 % 2.96 C
49 18-04-2021 06:00:00 6.7 C 79 % 3.32 C
50 18-04-2021 06:05:00 6.8 C 78 % 3.24 C
Sensor: Nr:Datum:Temp:Feuchte:Taupunkt:
Aussen-T/F 51 18-04-2021 06:10:00 6.8 C 78 % 3.24 C
52 18-04-2021 06:15:00 6.8 C 79 % 3.42 C
53 18-04-2021 06:20:00 6.8 C 77 % 3.06 C
54 18-04-2021 06:25:00 6.8 C 77 % 3.06 C
55 18-04-2021 06:30:00 6.8 C 78 % 3.24 C
56 18-04-2021 06:35:00 6.8 C 78 % 3.24 C
57 18-04-2021 06:40:00 6.8 C 79 % 3.42 C
58 18-04-2021 06:45:00 6.8 C 79 % 3.42 C
59 18-04-2021 06:50:00 6.8 C 79 % 3.42 C
60 18-04-2021 06:55:00 6.7 C 79 % 3.32 C
61 18-04-2021 07:00:00 6.7 C 79 % 3.32 C
62 18-04-2021 07:05:00 6.7 C 78 % 3.14 C
63 18-04-2021 07:10:00 6.7 C 79 % 3.32 C
64 18-04-2021 07:15:00 6.7 C 79 % 3.32 C
65 18-04-2021 07:20:00 6.8 C 78 % 3.24 C
66 18-04-2021 07:25:00 6.8 C 78 % 3.24 C
67 18-04-2021 07:30:00 6.8 C 78 % 3.24 C
68 18-04-2021 07:35:00 6.9 C 78 % 3.34 C
69 18-04-2021 07:40:00 6.9 C 78 % 3.34 C
70 18-04-2021 07:45:00 6.9 C 78 % 3.34 C
71 18-04-2021 07:50:00 7 C 78 % 3.43 C
72 18-04-2021 07:55:00 7 C 78 % 3.43 C
73 18-04-2021 08:00:00 7 C 78 % 3.43 C
74 18-04-2021 08:05:00 7.1 C 77 % 3.35 C
75 18-04-2021 08:10:00 7.1 C 77 % 3.35 C
Sensor: Nr:Datum:Temp:Feuchte:Taupunkt:
Aussen-T/F 76 18-04-2021 08:15:00 7.1 C 77 % 3.35 C
77 18-04-2021 08:20:00 7.2 C 77 % 3.45 C
78 18-04-2021 08:25:00 7.2 C 77 % 3.45 C
79 18-04-2021 08:30:00 7.3 C 77 % 3.54 C
80 18-04-2021 08:35:00 7.3 C 77 % 3.54 C
81 18-04-2021 08:40:00 7.3 C 77 % 3.54 C
82 18-04-2021 08:45:00 7.4 C 78 % 3.82 C
83 18-04-2021 08:50:00 7.4 C 77 % 3.64 C
84 18-04-2021 08:55:00 7.5 C 77 % 3.74 C
85 18-04-2021 09:00:00 7.6 C 76 % 3.65 C

Legende:
   Min
   Max


Maximal/Minimal-Werte vom 18.04.2021 - 19.04.2021

Sensor Min Max Avg
Temp
(Aussen-T/F)
6 °C
18-04-2021  03:25:00
7.6 °C
18-04-2021  09:00:00
6.68 °C
Feuchte
(Aussen-T/F)
76 %
18-04-2021  09:00:00
82 %
18-04-2021  03:40:00
78.89 %
Taupunkt
(Aussen-T/F)
2.74 C
18-04-2021  03:20:00
3.82 C
18-04-2021  08:45:00
3.25 C

Die Daten stammen von einer Davis Vantage Pro 2 Wetter-Station und werden unter Linux mit der Software wview2wettercgi und aufbereitet. Alle Angaben erfolgen ohne Gewähr für ihre Vollständigkeit oder Richtigkeit.
Kontakt: Rainer Krienke krienke@uni-koblenz.de . Meine Webseiten an der Uni Koblenz oder privat.
Version: $Revision: 0.78 $